| time (UTC) | temp C | wind direction | speed KPH | gust KPH | rain 1hr cm | rain 24hr cm | rain mn cm | humidity % | barometer mb |
| 20260503180044 | -17 | 93 | 4.8 | 8.0 | 0.00 | 0.00 | 0.00 | 1012.3 | |
| 20260503174540 | -17 | 82 | 3.2 | 12.9 | 0.00 | 0.00 | 0.00 | 1012.4 | |
| 20260503173032 | -17 | 80 | 1.6 | 14.5 | 0.00 | 0.00 | 0.00 | 1012.4 | |
| 20260503171529 | -17 | 26 | 0.0 | 3.2 | 0.00 | 0.00 | 0.00 | 1012.5 | |
| 20260503081540 | -17 | 215 | 0.0 | 0.0 | 0.00 | 0.00 | 0.00 | 1013.7 | |
| 20260503071533 | 10 | 215 | 0.0 | 0.0 | 0.00 | 0.00 | 0.00 | 89 | 1013.7 |
| 20260503054537 | -17 | 215 | 0.0 | 0.0 | 0.00 | 0.00 | 0.00 | 89 | 1013.8 |
| 20260503053034 | -17 | 215 | 0.0 | 0.0 | 0.00 | 0.00 | 0.00 | 1013.8 | |
| 20260503051526 | -17 | 215 | 0.0 | 0.0 | 0.00 | 0.00 | 0.00 | 1013.9 | |
| 20260503050032 | -17 | 215 | 0.0 | 0.0 | 0.00 | 0.00 | 0.00 | 1013.8 | |
| 20260503044530 | -17 | 215 | 0.0 | 0.0 | 0.00 | 0.00 | 0.00 | 1013.6 | |
| 20260503043041 | -17 | 215 | 0.0 | 0.0 | 0.00 | 0.00 | 0.00 | 1013.4 | |
| 20260503041537 | 12 | 233 | 0.0 | 1.6 | 0.00 | 0.00 | 0.00 | 88 | 1013.3 |
| 20260503040046 | 12 | 360 | 0.0 | 0.0 | 0.00 | 0.00 | 0.00 | 87 | 1013.1 |
| 20260503034540 | 12 | 360 | 0.0 | 0.0 | 0.00 | 0.00 | 0.00 | 87 | 1012.9 |
| 20260503033038 | 12 | 219 | 0.0 | 9.7 | 0.00 | 0.00 | 0.00 | 87 | 1012.7 |
| 20260503031552 | 12 | 211 | 0.0 | 6.4 | 0.00 | 0.00 | 0.00 | 86 | 1012.7 |
| 20260503030037 | 13 | 215 | 0.0 | 0.0 | 0.00 | 0.00 | 0.00 | 1012.7 | |
| 20260503024536 | -17 | 360 | 4.8 | 9.7 | 0.00 | 0.00 | 0.00 | 85 | 1012.5 |
| 20260503023029 | -17 | 360 | 0.0 | 11.3 | 0.00 | 0.00 | 0.00 | 1012.5 | |
| 20260503021526 | -17 | 246 | 4.8 | 9.7 | 0.00 | 0.00 | 0.00 | 1012.4 | |
| 20260503020035 | -17 | 218 | 3.2 | 8.0 | 0.00 | 0.00 | 0.00 | 100 | 1012.4 |
| 20260503014533 | -17 | 360 | 4.8 | 11.3 | 0.00 | 0.00 | 0.00 | 1012.4 | |
| 20260503013106 | -17 | 246 | 0.0 | 11.3 | 0.00 | 0.00 | 0.00 | 1012.4 | |
| 20260503011537 | -17 | 244 | 0.0 | 12.9 | 0.00 | 0.00 | 0.00 | 1012.4 | |
| 20260503010050 | 70 | 360 | 8.0 | 14.5 | 0.00 | 0.00 | 0.00 | 1012.4 | |
| 20260503004541 | 17 | 219 | 1.6 | 8.0 | 0.00 | 0.00 | 0.00 | 1012.4 | |
| 20260503003039 | 17 | 227 | 1.6 | 8.0 | 0.00 | 0.00 | 0.00 | 80 | 1012.4 |
| 20260503001533 | 18 | 249 | 3.2 | 8.0 | 0.00 | 0.00 | 0.00 | 79 | 1012.5 |
| 20260503000044 | 17 | 242 | 1.6 | 8.0 | 0.00 | 0.00 | 0.00 | 80 | 1012.6 |
| 20260502234538 | 17 | 231 | 3.2 | 11.3 | 0.00 | 0.00 | 0.00 | 80 | 1012.8 |
| 20260502233033 | 18 | 202 | 3.2 | 12.9 | 0.00 | 0.00 | 0.00 | 79 | 1012.9 |
| 20260502231531 | 20 | 254 | 3.2 | 11.3 | 0.00 | 0.00 | 0.00 | 76 | 1013.1 |
| 20260502230039 | 19 | 217 | 1.6 | 8.0 | 0.00 | 0.00 | 0.00 | 78 | 1013.2 |
| 20260502224536 | 18 | 222 | 4.8 | 9.7 | 0.00 | 0.00 | 0.00 | 79 | 1013.4 |
| 20260502223031 | 18 | 193 | 3.2 | 9.7 | 0.00 | 0.00 | 0.00 | 78 | 1013.7 |
| 20260502221528 | 18 | 205 | 3.2 | 12.9 | 0.00 | 0.00 | 0.00 | 77 | 1013.9 |
| 20260502220037 | 18 | 211 | 1.6 | 9.7 | 0.00 | 0.00 | 0.00 | 78 | 1014.1 |
| 20260502214535 | 18 | 360 | 4.8 | 9.7 | 0.00 | 0.00 | 0.00 | 79 | 1014.3 |
| 20260502213027 | 18 | 215 | 4.8 | 8.0 | 0.00 | 0.00 | 0.00 | 78 | 1014.3 |
| 20260502211600 | 18 | 216 | 3.2 | 9.7 | 0.00 | 0.00 | 0.00 | 78 | 1014.4 |
| 20260502210031 | 18 | 213 | 3.2 | 9.7 | 0.00 | 0.00 | 0.00 | 75 | 1014.6 |
| 20260502204525 | 19 | 240 | 1.6 | 11.3 | 0.00 | 0.00 | 0.00 | 74 | 1014.7 |
| 20260502203044 | 20 | 219 | 1.6 | 17.7 | 0.00 | 0.00 | 0.00 | 73 | 1014.7 |
| 20260502201537 | 20 | 217 | 0.0 | 1.6 | 0.00 | 0.00 | 0.00 | 69 | 1014.9 |
| 20260502200105 | 20 | 360 | 0.0 | 8.0 | 0.00 | 0.00 | 0.00 | 71 | 1015.1 |
| 20260502194601 | 19 | 251 | 1.6 | 8.0 | 0.00 | 0.00 | 0.00 | 72 | 1015.2 |
| 20260502193032 | 18 | 251 | 3.2 | 8.0 | 0.00 | 0.00 | 0.00 | 72 | 1015.3 |
| 20260502191551 | 18 | 360 | 3.2 | 8.0 | 0.00 | 0.00 | 0.00 | 75 | 1015.4 |
| 20260502190036 | 17 | 45 | 0.0 | 1.6 | 0.00 | 0.00 | 0.00 | 75 | 1015.5 |
| 20260502184529 | 16 | 220 | 4.8 | 9.7 | 0.00 | 0.00 | 0.00 | 78 | 1015.8 |
| 20260502183027 | 15 | 247 | 0.0 | 6.4 | 0.00 | 0.00 | 0.00 | 80 | 1015.9 |
| 20260502181541 | 15 | 240 | 1.6 | 8.0 | 0.00 | 0.00 | 0.00 | 80 | 1016.1 |